Tracking 28799 objects as of 18-Apr-2024
HD Live streaming from Space Station
objects crossing your sky now

NADEZHDA 5

Track NADEZHDA 5 now!
10-day predictions
NADEZHDA 5 is classified as:


NORAD ID: 25567
Int'l Code: 1998-072A
Perigee: 980.0 km
Apogee: 1,019.3 km
Inclination: 82.9 °
Period: 105.0 minutes
Semi major axis: 7370 km
RCS: 2.009 m2 (large)
Launch date: December 10, 1998
Source: Commonwealth of Independent States (former USSR) (CIS)
Launch site: PLESETSK MISSILE AND SPACE COMPLEX (PKMTR)

Out of service
Your satellite tracking list
Your tracking list is empty




NASA's NSSDC Master Catalog

Two Line Element Set (TLE):
1 25567U 98072A   24108.63191517  .00000145  00000-0  14219-3 0  9999
2 25567  82.9453 310.1969 0026696 139.5773 281.3999 13.71962493269262
Source of the keplerian elements: AFSPC